Flag for Bahrain Weather past 2 weeks in Manama, Bahrain

Now
84 °F

Clear.


Feels Like: 83 °F
Forecast: 78 / 90 °F
Wind: 3 mph from South

Location: Bahrain International Airport


UV Index: 7 (High)

Visibility: 10 mi


Pressure: 29.74 "Hg

Humidity: 35%

Dew point: 54 °F

Location of ManamaLocation

Historic Weather in Manama

°F

Manama temperature yesterday

Maximum temperature yesterday: 93 °F (at 6:00 PM)
Minimum temperature yesterday: 79 °F (at 12:00 AM)
Average temperature yesterday: 85 °F

Past Weeks' High & Low Weather Summary

 TemperatureHumidityPressure
High99 °F (Apr 11, 1:00 PM)94% (Apr 22, 6:00 AM)29.98 "Hg (Apr 22, 6:00 AM)
Low70 °F (Apr 9, 5:00 AM)9% (Apr 11, 12:00 PM)29.71 "Hg (Apr 21, 1:00 AM)
Average83 °F48%29.85 "Hg
* Reported Apr 9 4:00 AM — Apr 24 4:00 AM, Manama, Weather by CustomWeather, © 2014

Note: Actual official high and low records may vary slightly from our data, if they occured in-between our weather recording intervals... More about our weather records

Advertising

Historic Weather Conditions — Data for Previous 24 hours

 ConditionsComfort  
Time TempWeatherWind HumidityBarometerVisibility
4:00 AM
Apr 24
84 °FClear.5 mph37%29.74 "Hg10 mi
3:00 AM86 °FClear.6 mph38%29.74 "Hg10 mi
2:00 AM88 °FClear.5 mph35%29.74 "Hg10 mi
1:00 AM86 °FClear.9 mph40%29.74 "Hg10 mi
12:00 AM84 °FClear.8 mph55%29.77 "Hg10 mi
11:00 PM
Apr 23
86 °FClear.9 mph52%29.77 "Hg10 mi
10:00 PM88 °FClear.9 mph38%29.77 "Hg10 mi
9:00 PM88 °FClear.14 mph46%29.77 "Hg10 mi
8:00 PM90 °FClear.16 mph36%29.77 "Hg10 mi
7:00 PM90 °FClear.13 mph38%29.77 "Hg10 mi
6:00 PM93 °FSunny.12 mph30%29.77 "Hg10 mi
5:00 PM91 °FSunny.12 mph36%29.80 "Hg10 mi
4:00 PM90 °FSunny.15 mph46%29.80 "Hg10 mi
3:00 PM90 °FSunny.15 mph46%29.83 "Hg10 mi
2:00 PM88 °FSunny.15 mph52%29.86 "Hg10 mi
1:00 PM88 °FSunny.12 mph46%29.86 "Hg10 mi
12:00 PM84 °FClear.13 mph66%29.89 "Hg5 mi
11:00 AM84 °FClear.13 mph66%29.92 "Hg5 mi
10:00 AM84 °FClear.10 mph66%29.95 "Hg5 mi
9:00 AM86 °FClear.13 mph49%29.92 "Hg5 mi
8:00 AM84 °FClear.12 mph66%29.92 "Hg5 mi
7:00 AM84 °FClear.7 mph62%29.89 "Hg5 mi
6:00 AM81 °FClear.3 mph66%29.86 "Hg5 mi
5:00 AM79 °FClear.3 mph74%29.86 "Hg5 mi
Weather by CustomWeather, © 2014

See weather overview